This is the latest recevied weather packets stored in our database for station/object LX0WX-13. If no packets are shown the sender has not sent any weather packets the latest 1 day(s).
| Time | Temp. | Humidity | Pressure | Rain* | Wind** | Luminosity | Snow |
|---|---|---|---|---|---|---|---|
| 1778053850 | 9.44° C | 96% | 1001.5 hPa | 0.51 mm | - | - | - |
| 1778053550 | 9.44° C | 96% | 1001.4 hPa | 0.51 mm | - | - | - |
| 1778053250 | 9.44° C | 96% | 1001.4 hPa | 0.51 mm | - | - | - |
| 1778052950 | 9.44° C | 96% | 1001.4 hPa | 0.51 mm | - | - | - |
| 1778052650 | 9.44° C | 96% | 1001.2 hPa | 0.51 mm | - | - | - |
| 1778052350 | 9.44° C | 96% | 1001.3 hPa | 0.51 mm | - | - | - |
| 1778052050 | 8.89° C | 96% | 1001.1 hPa | 0.51 mm | - | - | - |
| 1778051750 | 8.89° C | 96% | 1001.1 hPa | 0.51 mm | - | - | - |
| 1778051150 | 8.89° C | 96% | 1001.2 hPa | 0.51 mm | - | - | - |
| 1778050850 | 8.89° C | 96% | 1001.2 hPa | 0.51 mm | - | - | - |
| 1778050550 | 8.89° C | 96% | 1001.2 hPa | 0.51 mm | - | - | - |
| 1778049650 | 8.33° C | 96% | 1001.1 hPa | 0.51 mm | - | - | - |
| 1778049350 | 8.33° C | 96% | 1001.1 hPa | 0.51 mm | - | - | - |
| 1778048750 | 8.33° C | 96% | 1001.1 hPa | 0.51 mm | - | - | - |
| 1778048450 | 8.33° C | 96% | 1001.1 hPa | 0.51 mm | - | - | - |
| 1778047850 | 7.78° C | 96% | 1000.9 hPa | 0.51 mm | - | - | - |
| 1778047550 | 7.78° C | 96% | 1001 hPa | 0.51 mm | - | - | - |
| 1778046950 | 8.33° C | 96% | 1000.8 hPa | 0 mm | - | - | - |
| 1778046650 | 8.33° C | 96% | 1000.8 hPa | 0 mm | - | - | - |
| 1778044850 | 8.33° C | 96% | 1000.8 hPa | 0 mm | - | - | - |
| 1778044250 | 8.33° C | 96% | 1000.8 hPa | 0 mm | - | - | - |
| 1778043050 | 8.33° C | 96% | 1000.8 hPa | 0 mm | - | - | - |
| 1778037951 | 10° C | 96% | 1000.8 hPa | 0.51 mm | - | - | - |
| 1778037351 | 10° C | 96% | 1000.8 hPa | 0.51 mm | - | - | - |
| 1778037051 | 10° C | 96% | 1000.7 hPa | 0 mm | - | - | - |
* Rain latest hour (hover to see other rain measurements)
** Current wind speed in m/s (hover to see current wind gust speed)